This demonstration page uses our WeatherBlox Daily Observations layout. Learn more.

Left ArrowRight Arrow

Hourly Observations for May 26, 2016

Temp ( °F °C ) Dew Point ( °F °C ) Humidity (%) Winds ( mph kmh ) Pressure ( in mb ) Visibility ( mi km ) Precip ( " mm )
12:53 am 00:53 Clear 68 20 64 17.8 87 87 N N/A 30.05 1018 10 16 N/A
1:53 am 01:53 Clear 65 18.3 63 17.2 93 93 N N/A 30.05 1018 10 16 N/A
2:53 am 02:53 Mostly Cloudy 66 18.9 63 17.2 90 90 N N/A 30.06 1018 10 16 N/A
3:53 am 03:53 Mostly Cloudy 69 20.6 63 17.2 81 81 N N/A 30.05 1018 10 16 N/A
4:53 am 04:53 Mostly Clear 68 20 63 17.2 84 84 N N/A 30.05 1018 10 16 N/A
5:53 am 05:53 Mostly Cloudy 66 18.9 63 17.2 90 90 N N/A 30.06 1018 10 16 N/A
6:53 am 06:53 Sunny 67 19.4 63 17.2 87 87 SW 6 9 30.06 1018 10 16 N/A
7:53 am 07:53 Partly Cloudy 70 21.1 63 17.2 79 79 SW 5 7 30.06 1018 10 16 N/A
8:18 am 08:18 Cloudy 70 21.1 64 17.8 82 82 SSW 5 7 30.06 1018 10 16 N/A
8:44 am 08:44 Mostly Cloudy 73 22.8 64 17.8 74 74 VRB 5 7 30.06 1018 10 16 N/A
8:53 am 08:53 Mostly Cloudy 72 22.2 64 17.8 76 76 WSW 8 13 30.07 1018 10 16 N/A
9:53 am 09:53 Mostly Sunny 75 23.9 66 18.9 74 74 SSW 7 11 30.06 1018 10 16 N/A
10:53 am 10:53 Cloudy 74 23.3 64 17.8 71 71 SSW 12 19 30.06 1018 10 16 N/A
11:53 am 11:53 Mostly Cloudy 78 25.6 65 18.3 64 64 SSW 9 15 30.06 1018 10 16 N/A
12:50 pm 12:50 Mostly Cloudy 79 26 64 18 61 61 SSW 9 15 30.06 1018 10 16 N/A
12:53 pm 12:53 Mostly Cloudy 79 26.1 65 18.3 62 62 SSW 9 15 30.05 1018 10 16 N/A
1:53 pm 13:53 Cloudy 81 27.2 67 19.4 62 62 SW 7 11 30.04 1017 10 16 N/A
2:27 pm 14:27 Cloudy 80 26.7 67 19.4 64 64 S 8 13 30.03 1017 10 16 N/A
2:53 pm 14:53 Mostly Sunny 82 27.8 69 20.6 65 65 WSW 9 15 30.01 1016 10 16 N/A
3:24 pm 15:24 Mostly Cloudy with Nearby Thunderstorms 79 26.1 68 20 69 69 SW 7 11 30.03 1017 10 16 N/A
3:44 pm 15:44 Cloudy with Thunderstorms 78 25.6 68 20 71 71 NW 16 26 30.03 1017 8 13 N/A
3:53 pm 15:53 Cloudy with Thunderstorms 73 22.8 69 20.6 87 87 VRB 7 11 29.99 1016 4 6 0.01 0.25
4:11 pm 16:11 Mostly Cloudy with Light Thunderstorms 70 21.1 66 18.9 87 87 ESE 8 13 29.97 1015 10 16 0.01 0.25
4:34 pm 16:34 Partly Cloudy with Nearby Thunderstorms 71 21.7 65 18.3 81 81 VRB 3 6 29.97 1015 10 16 0.01 0.25
4:53 pm 16:53 Sunny 72 22.2 68 20 87 87 VRB 6 9 29.98 1015 10 16 0.01 0.25
5:53 pm 17:53 Sunny 75 23.9 66 18.9 74 74 SSW 8 13 29.99 1016 10 16 N/A
6:53 pm 18:53 Sunny 74 23.3 65 18.3 74 74 VRB 5 7 29.98 1015 10 16 N/A
7:53 pm 19:53 Sunny 73 22.8 65 18.3 76 76 S 6 9 29.96 1015 10 16 N/A
8:53 pm 20:53 Sunny 71 21.7 65 18.3 81 81 SSW 6 9 29.96 1015 10 16 N/A
9:53 pm 21:53 Clear 69 20.6 63 17.2 81 81 SW 5 7 30.00 1016 10 16 N/A
10:53 pm 22:53 Clear 68 20 63 17.2 84 84 SSW 3 6 30.01 1016 10 16 N/A
11:53 pm 23:53 Clear 65 18.3 63 17.2 93 93 N N/A 30.01 1016 10 16 N/A

Powered by AerisWeather